Chester, SC

8:10 AM EST on December 08, 2019 (GMT -0500)
Chester

Weather History for KDCM - November, 2019

Change the Weather History Date:

Tuesday, November 12, 2019

  Actual Average (KUZA) Record (KUZA)
Temperature  
Mean Temperature 40 °F -  
Max Temperature 53 °F 63 °F 82 °F (1989)
Min Temperature 28 °F 42 °F 27 °F (1952)
Degree Days  
Heating Degree Days 24    
Moisture  
Dew Point 38 °F    
Average Humidity 80    
Maximum Humidity 100    
Minimum Humidity 55    
Precipitation  
Precipitation 0.50 in - - ()
Sea Level Pressure  
Sea Level Pressure 30.02 in    
Wind  
Wind Speed 5 mph ()    
Max Wind Speed 18 mph    
Max Gust Speed 30 mph    
Visibility 8.8 miles    
Events Rain    
Averages and records for this station are not official NWS values.
T = Trace of Precipitation, MM = Missing Value Source: Averaged Metar Reports

Daily Weather History Graph

Daily Weather History Graph

Search for Another Location

Airport or City:

Astronomy

Nov. 12, 2019 Rise Set
Actual Time 6:55 AM EST 5:21 PM EST
Civil Twilight 6:29 AM EST 5:48 PM EST
Nautical Twilight 5:58 AM EST 6:18 PM EST
Astronomical Twilight 5:28 AM EST 6:48 PM EST
Moon 5:46 PM EST (11/12) 6:47 AM EST (11/12)
Length of Visible Light 11h 19m
Length of Day
10h 26m
Full, 100% of the Moon is Illuminated
Nov 12
Full
Nov 19
Last Quarter
Nov 26
New
Dec 4
First Quarter
Dec 12
Full

Hourly Weather History & Observations

Time (EST) Temp. Windchill Dew Point Humidity Pressure Visibility Wind Dir Wind Speed Gust Speed Precip Events Conditions
12:15 AM 53.6 °F - 39.2 °F 58% 30.01 in 10.0 mi SSW 3.5 mph - N/A   Mostly Cloudy
12:35 AM 53.6 °F - 39.2 °F 58% 29.99 in 10.0 mi Calm Calm - N/A   Overcast
12:55 AM 53.6 °F - 39.2 °F 58% 29.99 in 10.0 mi Calm Calm - N/A   Mostly Cloudy
1:35 AM 53.6 °F - 39.2 °F 58% 29.98 in 10.0 mi SSW 3.5 mph - N/A Rain Light Rain
1:55 AM 51.8 °F - 41.0 °F 67% 29.97 in 10.0 mi Calm Calm - N/A Rain Rain
2:15 AM 51.8 °F - 42.8 °F 71% 29.96 in 10.0 mi Calm Calm - N/A Rain Light Rain
2:55 AM 51.8 °F - 41.0 °F 67% 29.94 in 10.0 mi SW 4.6 mph - N/A Rain Light Rain
3:15 AM 51.8 °F - 42.8 °F 71% 29.93 in 10.0 mi SW 4.6 mph - N/A Rain Rain
3:35 AM 51.8 °F - 42.8 °F 71% 29.92 in 10.0 mi SSW 4.6 mph - N/A   Mostly Cloudy
3:55 AM 51.8 °F - 42.8 °F 71% 29.91 in 10.0 mi SSW 3.5 mph - N/A   Overcast
4:15 AM 51.8 °F - 42.8 °F 71% 29.91 in 10.0 mi South 4.6 mph - N/A   Overcast
4:35 AM 51.8 °F - 44.6 °F 76% 29.91 in 10.0 mi SSW 3.5 mph - N/A Rain Rain
4:55 AM 51.8 °F - 44.6 °F 76% 29.91 in 10.0 mi SSW 3.5 mph - N/A   Overcast
5:15 AM 51.8 °F - 44.6 °F 76% 29.90 in 10.0 mi Calm Calm - N/A   Overcast
5:35 AM 51.8 °F - 46.4 °F 82% 29.89 in 4.0 mi Calm Calm - N/A   Drizzle
5:55 AM 50.0 °F - 50.0 °F 100% 29.89 in 7.0 mi Calm Calm - N/A   Drizzle
6:15 AM 50.0 °F - 50.0 °F 100% 29.89 in 10.0 mi Calm Calm - N/A   Overcast
6:35 AM 50.0 °F - 50.0 °F 100% 29.88 in 10.0 mi Calm Calm - N/A Rain Rain
6:55 AM 50.0 °F - 50.0 °F 100% 29.89 in 4.0 mi Calm Calm - 0.02 in Rain Heavy Rain
7:15 AM 50.0 °F - 50.0 °F 100% 29.89 in 4.0 mi Calm Calm - 0.02 in Rain Rain
7:35 AM 51.8 °F - 51.8 °F 100% 29.89 in 1.8 mi Calm Calm - 0.06 in Rain Rain
7:55 AM 51.8 °F - 51.8 °F 100% 29.91 in 2.0 mi West 3.5 mph - 0.11 in Rain Heavy Rain
8:15 AM 53.6 °F - 53.6 °F 100% 29.92 in 2.5 mi West 5.8 mph - 0.06 in Rain Rain
8:35 AM 53.6 °F - 53.6 °F 100% 29.93 in 4.0 mi West 4.6 mph - 0.10 in Rain Rain
8:55 AM 51.8 °F - 51.8 °F 100% 29.94 in 4.0 mi WNW 4.6 mph - 0.15 in Rain Rain
9:15 AM 51.8 °F - 51.8 °F 100% 29.94 in 5.0 mi NW 5.8 mph - 0.04 in Rain Rain
9:55 AM 51.8 °F - 51.8 °F 100% 29.94 in 7.0 mi NNW 8.1 mph - 0.09 in Rain Rain
10:15 AM 50.0 °F - 50.0 °F 100% 29.95 in 10.0 mi North 16.1 mph - 0.01 in Rain Light Rain
10:55 AM 46.4 °F 40.7 °F 46.4 °F 100% 29.97 in 10.0 mi North 12.7 mph 20.7 mph 0.04 in Rain Rain
11:15 AM 46.4 °F 41.1 °F 46.4 °F 100% 29.98 in 10.0 mi NNW 11.5 mph - 0.02 in Rain Rain
11:35 AM 42.8 °F 34.8 °F 42.8 °F 100% 29.99 in 5.0 mi North 17.3 mph 24.2 mph 0.05 in Rain Rain
11:55 AM 42.8 °F 34.5 °F 42.8 °F 100% 29.99 in 7.0 mi North 18.4 mph 29.9 mph 0.07 in Rain Rain
12:15 PM 41.0 °F 33.1 °F 41.0 °F 100% 30.00 in 10.0 mi North 15.0 mph 23.0 mph 0.01 in Rain Light Rain
12:35 PM 41.0 °F 34.7 °F 41.0 °F 100% 29.99 in 10.0 mi NNW 10.4 mph 16.1 mph 0.02 in Rain Light Rain
12:55 PM 42.8 °F 37.5 °F 42.8 °F 100% 29.99 in 10.0 mi North 9.2 mph - 0.02 in   Overcast
1:15 PM 41.0 °F 34.3 °F 41.0 °F 100% 30.00 in 10.0 mi North 11.5 mph 19.6 mph N/A   Overcast
1:35 PM 41.0 °F 33.5 °F 39.2 °F 93% 30.00 in 10.0 mi North 13.8 mph - N/A   Light Drizzle
2:35 PM 41.0 °F 33.5 °F 39.2 °F 93% 30.01 in 10.0 mi NNE 13.8 mph 18.4 mph N/A   Overcast
2:55 PM 41.0 °F 33.1 °F 35.6 °F 81% 30.01 in 10.0 mi North 15.0 mph - N/A   Overcast
3:15 PM 41.0 °F 34.3 °F 35.6 °F 81% 30.02 in 10.0 mi North 11.5 mph - N/A   Overcast
3:35 PM 41.0 °F 35.8 °F 35.6 °F 81% 30.03 in 10.0 mi North 8.1 mph - N/A   Overcast
3:55 PM 42.8 °F 37.5 °F 35.6 °F 76% 30.04 in 10.0 mi NE 9.2 mph 16.1 mph N/A   Overcast
4:35 PM 42.8 °F 37.5 °F 33.8 °F 70% 30.06 in 10.0 mi NNE 9.2 mph - N/A   Clear
4:55 PM 41.0 °F 37.1 °F 33.8 °F 76% 30.06 in 10.0 mi NNE 5.8 mph - N/A   Clear
5:15 PM 39.2 °F 35.9 °F 33.8 °F 81% 30.07 in 10.0 mi North 4.6 mph - N/A   Clear
5:35 PM 39.2 °F 35.9 °F 33.8 °F 81% 30.08 in 10.0 mi North 4.6 mph - N/A   Clear
5:55 PM 37.4 °F 32.1 °F 32.0 °F 81% 30.09 in 10.0 mi North 6.9 mph - N/A   Clear
6:35 PM 37.4 °F 29.8 °F 26.6 °F 65% 30.12 in 10.0 mi North 11.5 mph 16.1 mph N/A   Clear
6:55 PM 37.4 °F 28.5 °F 23.0 °F 56% 30.13 in 10.0 mi North 15.0 mph 19.6 mph N/A   Clear
7:15 PM 35.6 °F 26.6 °F 23.0 °F 60% 30.15 in 10.0 mi North 13.8 mph 19.6 mph N/A   Clear
7:55 PM 33.8 °F 25.8 °F 21.2 °F 60% 30.18 in 10.0 mi North 10.4 mph 20.7 mph N/A   Clear
8:15 PM 33.8 °F 25.8 °F 21.2 °F 60% 30.19 in 10.0 mi North 10.4 mph 19.6 mph N/A   Clear
8:35 PM 32.0 °F 24.2 °F 21.2 °F 64% 30.20 in 10.0 mi North 9.2 mph - N/A   Clear
9:15 PM 32.0 °F 22.1 °F 19.4 °F 60% 30.23 in 10.0 mi North 13.8 mph 18.4 mph N/A   Clear
9:55 PM 32.0 °F 21.6 °F 17.6 °F 55% 30.25 in 10.0 mi North 15.0 mph 20.7 mph N/A   Clear
10:15 PM 32.0 °F 23.0 °F 17.6 °F 55% 30.26 in 10.0 mi North 11.5 mph 18.4 mph N/A   Clear
10:35 PM 32.0 °F 24.8 °F 17.6 °F 55% 30.26 in 10.0 mi NNE 8.1 mph - N/A   Clear
10:55 PM 30.2 °F 24.3 °F 19.4 °F 64% 30.26 in 10.0 mi NNE 5.8 mph - N/A   Clear
11:15 PM 28.4 °F 22.2 °F 19.4 °F 69% 30.27 in 10.0 mi NNE 5.8 mph - N/A   Clear
11:35 PM 30.2 °F 23.4 °F 19.4 °F 64% 30.28 in 10.0 mi NNE 6.9 mph - N/A   Clear
11:55 PM 28.4 °F 19.7 °F 19.4 °F 69% 30.27 in 10.0 mi North 9.2 mph - N/A   Clear